This is the latest recevied weather packets stored in our database for station/object AE6BH. If no packets are shown the sender has not sent any weather packets the latest 10 day(s).
| Time | Temp. | Humidity | Pressure | Rain* | Wind** | Luminosity | Snow |
|---|---|---|---|---|---|---|---|
| 1778188128 | 23.89° C | 51% | 1015.3 hPa | 0 mm | - | 741 W/m² | - |
| 1778187825 | 23.89° C | 52% | 1015.3 hPa | 0 mm | - | 741 W/m² | - |
| 1778187522 | 23.89° C | 53% | 1015.3 hPa | 0 mm | - | 749 W/m² | - |
| 1778187218 | 23.89° C | 53% | 1015.3 hPa | 0 mm | - | 768 W/m² | - |
| 1778186915 | 24.44° C | 52% | 1015.6 hPa | 0 mm | - | 788 W/m² | - |
| 1778186612 | 23.89° C | 52% | 1015.2 hPa | 0 mm | - | 783 W/m² | - |
| 1778186310 | 23.89° C | 52% | 1015.7 hPa | 0 mm | - | 749 W/m² | - |
| 1778186008 | 23.33° C | 53% | 1015.5 hPa | 0 mm | - | 745 W/m² | - |
| 1778185703 | 23.89° C | 52% | 1015.3 hPa | 0 mm | - | 704 W/m² | - |
| 1778185400 | 24.44° C | 52% | 1015.6 hPa | 0 mm | - | 688 W/m² | - |
| 1778185095 | 23.33° C | 53% | 1015.5 hPa | 0 mm | - | 740 W/m² | - |
| 1778184791 | 23.89° C | 52% | 1015.6 hPa | 0 mm | - | 752 W/m² | - |
| 1778184488 | 24.44° C | 51% | 1015.5 hPa | 0 mm | - | 744 W/m² | - |
| 1778184184 | 23.89° C | 52% | 1015.7 hPa | 0 mm | - | 740 W/m² | - |
| 1778183880 | 23.89° C | 51% | 1015.6 hPa | 0 mm | - | 742 W/m² | - |
| 1778183577 | 23.89° C | 51% | 1015.8 hPa | 0 mm | - | 742 W/m² | - |
| 1778183275 | 24.44° C | 50% | 1015.7 hPa | 0 mm | - | 745 W/m² | - |
| 1778182970 | 23.33° C | 52% | 1015.7 hPa | 0 mm | - | 753 W/m² | - |
| 1778182667 | 23.89° C | 51% | 1015.6 hPa | 0 mm | - | 756 W/m² | - |
| 1778182364 | 23.89° C | 52% | 1015.6 hPa | 0 mm | - | 743 W/m² | - |
| 1778182060 | 23.33° C | 52% | 1015.8 hPa | 0 mm | - | 752 W/m² | - |
| 1778181757 | 23.89° C | 52% | 1015.8 hPa | 0 mm | - | 759 W/m² | - |
| 1778181453 | 23.89° C | 52% | 1015.9 hPa | 0 mm | - | 752 W/m² | - |
| 1778181150 | 22.78° C | 54% | 1015.9 hPa | 0 mm | - | 753 W/m² | - |
| 1778180847 | 23.89° C | 51% | 1015.8 hPa | 0 mm | - | 757 W/m² | - |
* Rain latest hour (hover to see other rain measurements)
** Current wind speed in m/s (hover to see current wind gust speed)